2001 TC   

Epoch 2001 Oct. 18.0 TT = JDT 2452200.5                 Nakano

M  16.84160              (2000.0)            P               Q

n   0.28173739     Peri.  309.22566     +0.79831979     +0.59736810

a   2.3044806      Node    14.62559     -0.41573816     +0.63843198

e   0.5373813      Incl.   17.61203     -0.43571470     +0.48534108

P   3.50           H   20.6           G   0.15           U   *

Residuals in seconds of arc 

011006 644  0.6+  0.3+    011008 046  0.3+  0.3+    011013 699  0.5-  1.0-  

011006 644  0.2+  0.5+    011008 046  0.2+  0.0     011014 704  0.8-  0.0   

011006 644  0.3+  0.5+    011009 046  0.5+  0.5-    011014 704  0.2+  0.2+  

011008 649  0.3-  0.3-    011009 046  0.3+  0.3-    011014 704  0.5+  0.3+  

011008 649  0.9-  0.2-    011009 046  0.3-  0.4-    011014 704  0.4+  1.1+  

011008 649  0.5-  0.7-    011009 046  0.5+  0.5+    011014 046  0.3+  0.6+  

011008 649  0.5-  0.4-    011011 644  0.5+  0.8+    011014 046  0.6+  0.8+  

011008 422  0.4+  0.3+    011011 644  0.3+  1.1+    011014 046  0.8+  0.3+  

011008 422  0.2+  0.2-    011011 644  0.4+  0.9+    011014 046  1.0+  0.5-  

011008 422  0.3+  0.4-    011011 118  0.2+  0.4-    011014 118  0.4-  0.3-  

011008 046  1.2-  0.3+    011011 118  0.7+  0.5-    011014 118  0.1-  0.1-  

011008 118  0.3-  0.6-    011011 118  0.9+  0.2-    011014 118  0.1-  0.6-  

011008 046  0.6+  1.0-    011012 118  0.1+  0.1-    011015 608  0.8-  0.8-  

011008 046  1.3-  0.3-    011012 118  0.3-  0.0     011015 608  0.4-  0.7-  

011008 118  0.1+  0.2-    011012 118  0.1-  0.5-    011015 608  0.8-  0.8-  

011008 118  0.2-  0.8+    011013 699  0.3-  0.4+    011019 360  0.2+  0.4+  

011008 046  0.1-  0.2-    011013 699  0.5-  0.5+    011019 360  0.2-  0.1-  

011008 046  0.0   0.2+    011013 699  1.1-  1.2+    011019 360  0.3+  0.1-  

  

NAKANO

         **** Don't distribute anyone except personal use only ****

                (C) Copyright 2001 OAA/ComputingSection

write mail from CFAD0::NAKANO on 2001-10-20 20:14:33(JST).

 





–ß‚è‚Ü‚·B